Location: Boncourt
(49.6160°N, 3.9448°E)
Time: 07:10:15
(UTC+00:00)

Cosmos 2297 - Pass Details

Date: 09 February 2023
Orbit: 835 x 858 km, 71.0° (Epoch: 24 March)

Event Time Altitude Azimuth Distance (km) Brightness Sun altitude
Rises 19:55:39 0° 332° (NNW) 3,445 7.4 -29.9°
Reaches altitude 10° 19:58:08 10° 334° (NNW) 2,503 6.6 -30.3°
Enters shadow 20:02:07 45° 350° (N) 1,166 4.5 -30.9°
